Location: Boiro
(42.6475°N, 8.8834°W)
Time: 19:06:46
(UTC+01:00)

Tiros 1 despin weight - Pass Details

Date: 06 December 2021
Orbit: 592 x 641 km, 48.2° (Epoch: 20 January)

Event Time Altitude Azimuth Distance (km) Brightness Sun altitude
Rises 16:51:52 0° 286° (WNW) 2,830 ? 9.5°
Reaches altitude 10° 16:54:16 10° 294° (WNW) 1,925 ? 9.2°
Maximum altitude 16:58:26 40° 5° (N) 875 ? 8.6°
Drops below altitude 10° 17:02:36 10° 75° (ENE) 1,922 ? 8.0°
Sets 17:05:00 0° 83° (E) 2,826 ? 7.7°
